Location: Kumla
(59.1265°N, 15.1401°E)
Time: 15:59:40
(UTC+01:00)

Vanguard 3 - Visible Passes

Search period start: 03 December 2023 00:00
Search period end: 13 December 2023 00:00
Orbit: 507 x 3241 km, 33.3° (Epoch: 03 December)

Date Brightness Start Highest point End Pass type
(mag) Time Alt. Az. Time Alt. Az. Time Alt. Az.
08 Dec 10.9 20:45:39 10° S 20:45:42 10° S 20:45:42 10° S visible
09 Dec 10.8 19:29:47 10° S 19:33:08 11° SSE 19:33:14 11° SSE visible
10 Dec 10.7 20:20:07 10° SSW 20:25:04 15° S 20:25:04 15° S visible
11 Dec 10.7 19:03:22 10° S 19:10:06 14° SSE 19:12:33 13° SSE visible
11 Dec 10.8 21:13:14 10° SW 21:16:52 15° SSW 21:16:52 15° SSW visible
12 Dec 10.9 17:49:21 10° SSE 17:52:56 11° SSE 17:56:16 10° SE visible
12 Dec 10.6 19:55:01 10° SSW 20:04:09 18° S 20:04:20 18° S visible
12 Dec 11.0 22:07:42 10° SW 22:08:39 11° SW 22:08:39 11° SW visible
